TimeCST,TemperatureF,Dew PointF,Humidity,Sea Level PressureIn,VisibilityMPH,Wind Direction,Wind SpeedMPH,Gust SpeedMPH,PrecipitationIn,Events,Conditions,WindDirDegrees,DateUTC
12:53 AM,42.1,33.1,70,30.20,10.0,NW,11.5,-,N/A,,Clear,310,2002-01-07 06:53:00
1:53 AM,41.0,33.1,73,30.22,10.0,NW,12.7,-,N/A,,Clear,310,2002-01-07 07:53:00
2:53 AM,39.9,32.0,73,30.24,10.0,WNW,9.2,-,N/A,,Clear,300,2002-01-07 08:53:00
3:53 AM,37.9,30.0,73,30.25,10.0,NW,11.5,-,N/A,,Clear,320,2002-01-07 09:53:00
4:53 AM,36.0,30.0,79,30.24,10.0,NW,8.1,-,N/A,,Clear,320,2002-01-07 10:53:00
5:53 AM,33.1,28.0,82,30.26,10.0,NW,5.8,-,N/A,,Clear,310,2002-01-07 11:53:00
6:53 AM,33.1,28.0,82,30.29,10.0,NW,4.6,-,N/A,,Clear,310,2002-01-07 12:53:00
7:53 AM,34.0,28.9,82,30.31,10.0,WNW,4.6,-,N/A,,Clear,290,2002-01-07 13:53:00
8:53 AM,37.9,30.9,76,30.33,10.0,Variable,3.5,-,N/A,,Clear,0,2002-01-07 14:53:00
9:53 AM,42.1,30.9,65,30.35,10.0,North,8.1,-,N/A,,Clear,350,2002-01-07 15:53:00
10:53 AM,43.0,28.9,58,30.35,10.0,NNE,9.2,-,N/A,,Scattered Clouds,20,2002-01-07 16:53:00
11:53 AM,45.0,28.9,53,30.34,10.0,Variable,4.6,-,N/A,,Mostly Cloudy,0,2002-01-07 17:53:00
12:53 PM,44.1,28.0,53,30.33,10.0,NNW,9.2,-,N/A,,Scattered Clouds,340,2002-01-07 18:53:00
1:53 PM,46.0,28.9,51,30.31,10.0,NNW,10.4,-,N/A,,Clear,330,2002-01-07 19:53:00
2:53 PM,46.0,28.0,50,30.32,10.0,WNW,10.4,-,N/A,,Clear,300,2002-01-07 20:53:00
3:53 PM,46.9,28.0,48,30.31,10.0,NNW,8.1,-,N/A,,Clear,330,2002-01-07 21:53:00
4:53 PM,44.1,28.0,53,30.30,10.0,NNW,5.8,-,N/A,,Clear,330,2002-01-07 22:53:00
5:53 PM,41.0,28.9,62,30.33,10.0,WNW,5.8,-,N/A,,Clear,300,2002-01-07 23:53:00
6:53 PM,37.9,28.9,70,30.34,10.0,Calm,Calm,-,N/A,,Clear,0,2002-01-08 00:53:00
7:53 PM,35.1,28.0,76,30.35,10.0,Calm,Calm,-,N/A,,Clear,0,2002-01-08 01:53:00
8:53 PM,33.1,30.9,92,30.35,10.0,Calm,Calm,-,N/A,,Clear,0,2002-01-08 02:53:00
9:53 PM,33.1,28.0,82,30.35,10.0,Calm,Calm,-,N/A,,Clear,0,2002-01-08 03:53:00
10:53 PM,30.9,28.9,92,30.36,10.0,Calm,Calm,-,N/A,,Clear,0,2002-01-08 04:53:00
11:53 PM,30.0,28.0,92,30.35,10.0,Calm,Calm,-,N/A,,Clear,0,2002-01-08 05:53:00